DELTA 1 DEB, 18429

Orbit data source: Space-Track

DELTA 1 DEB, 18429 is space debris in SSO originally from a launch on Thu, 29 Jul 1976 UTC launched from the Air Force Western Test Range (AFWTR). Debris objects in space refer to the collection of defunct objects orbiting the Earth. Examples of debris include non-operational satellites, rocket bodies, and fragments generated from explosions, collisions, or faulty payload assembly.

Loading next visibility...
Identifier
18429, 1976-077EZ
Orbit
SSO
Country
Flag of USUS
Related business
Manufacturer
Unknown
Mission
Spacecraft
Bus & Motor
Unknown
Mass
Unknown
Launch date (UTC)
1976-07-29 (50 years ago)
Launch vehicle
Unknown
Launch site
Air Force Western Test Range (AFWTR)
Object type
Payload
Rocket body
Debris
Shape & HBR
Unknown shape, 0.1 m
Radar Cross Section
Medium (>0.1 m² and <1 m²)

Expand to show TLE details & history
Last TLE update: 1 day ago

TLE from 1 day ago
0 DELTA 1 DEB
1 18429U 76077EZ  26255.10370720 -.00000165  00000-0 -13052-2 0  9998
2 18429 102.4720 301.6698 0228455  49.7142 337.7495 12.06423836626162
Epoch: 2026-09-12T02:29Z
TLE epoch observation values (Epoch: 2026-09-12T02:29:20.302Z)
Latitude
25.80813°
Longitude
-92.89221°
Altitude
1,485.782 km
Speed
7.198 km/s
True Right ascension
19h 42m 14s
True Declination
25° 41' 10"
Sunlit
Object was in daylight at epoch
Visualization orbit readout
Latitude
Unknown
Longitude
Unknown
Altitude
Unknown
Speed
Unknown
Apparent Right ascension
Unknown
Apparent Declination
Unknown
Sunlit
N/A
Visualization observer readout
Local Sidereal Time
02:28:41
Azimuth
Unknown
Elevation
Unknown
Doppler factor
Unknown
Orbital elements
Apogee altitude
1,833.276 km
Perigee altitude
1,466.468 km
Semi-major axis
8,028.009 km
Eccentricity
0.02285
Inclination
102.472°
RAAN
301.6698°
Arg. of periapsis
49.7142°
True anomaly
336.73139°
Mean anomaly
337.7495°
Eccentric anomaly
337.24317°
Mean motion
3.01739 °/min
Orbital period
119.31 mins
BSTAR
-0.0013052
Loading maneuver chart data...
Computing Atmospheric mass density...
Loading historical data...
Loading historical data...
Loading historical data...
Loading historical data...
Loading historical data...
Loading historical data...
Loading historical data...

Documentation

Showing up to 5 results
|